Price, UT

2:13 AM MDT on July 24, 2017 (GMT -0600)
Carbon County

Weather History for KPUC - October, 2011

Change the Weather History Date:

Saturday, October 29, 2011

  Actual Average Record
Temperature  
Mean Temperature 40 °F -  
Max Temperature 53 °F 51 °F 75 °F (2003)
Min Temperature 28 °F 30 °F 20 °F (1991)
Degree Days  
Heating Degree Days 26    
Moisture  
Dew Point 14 °F    
Average Humidity 37    
Maximum Humidity 53    
Minimum Humidity 22    
Precipitation  
Precipitation 0.00 in - - ()
Sea Level Pressure  
Sea Level Pressure 30.29 in    
Wind  
Wind Speed 5 mph (NE)    
Max Wind Speed 8 mph    
Max Gust Speed -    
Visibility 10 miles    
Events      
Averages and records for this station are not official NWS values.
T = Trace of Precipitation, MM = Missing Value Source: NWS Daily Summary

Daily Weather History Graph

Daily Weather History Graph

Search for Another Location

Airport or City:

Trip Planner

Search our weather history database for the weather conditions in past years. The results will help you decide how hot, cold, wet, or windy it might be!

Date:

Astronomy

Oct. 29, 2011 Rise Set
Actual Time 7:47 AM MDT 6:25 PM MDT
Civil Twilight 7:20 AM MDT 6:52 PM MDT
Nautical Twilight 6:48 AM MDT 7:24 PM MDT
Astronomical Twilight 6:17 AM MDT 7:55 PM MDT
Moon 11:12 AM MDT (10/29) 8:53 PM MDT (10/29)
Length of Visible Light 11h 32m
Length of Day
10h 37m
Waxing Crescent, 12% of the Moon is Illuminated
Oct 29
Waxing Crescent
Nov 2
First Quarter
Nov 10
Full
Nov 18
Last Quarter
Nov 24
New

Hourly Weather History & Observations

Time (MDT) Temp. Windchill Dew Point Humidity Pressure Visibility Wind Dir Wind Speed Gust Speed Precip Events Conditions
1:53 AM 28.9 °F 23.9 °F 10.0 °F 45% 30.32 in 10.0 mi NE 4.6 mph - N/A   Clear
2:53 AM 28.9 °F 21.1 °F 10.9 °F 47% 30.30 in 10.0 mi NNE 8.1 mph - N/A   Clear
3:53 AM 28.4 °F 21.2 °F 10.4 °F 47% 30.25 in 10.0 mi North 6.9 mph - N/A   Clear
4:53 AM 30.0 °F 22.4 °F 12.0 °F 47% 30.29 in 10.0 mi North 8.1 mph - N/A   Clear
5:53 AM 28.9 °F 21.1 °F 12.0 °F 49% 30.30 in 10.0 mi NNE 8.1 mph - N/A   Clear
6:53 AM 28.9 °F 25.2 °F 12.9 °F 51% 30.32 in 10.0 mi NNE 3.5 mph - N/A   Clear
7:53 AM 28.0 °F 20.8 °F 12.9 °F 53% 30.36 in 10.0 mi NNE 6.9 mph - N/A   Clear
8:53 AM 35.6 °F - 15.8 °F 44% 30.27 in 10.0 mi Calm Calm - N/A   Clear
9:53 AM 37.9 °F - 14.0 °F 38% 30.35 in 10.0 mi Calm Calm - N/A   Clear
10:53 AM 43.0 °F - 14.0 °F 31% 30.33 in 10.0 mi Calm Calm - N/A   Clear
11:53 AM 46.9 °F - 12.0 °F 24% 30.31 in 10.0 mi Calm Calm - N/A   Clear
12:53 PM 48.0 °F - 12.0 °F 24% 30.29 in 10.0 mi Variable 4.6 mph - N/A   Clear
1:53 PM 50.0 °F - 12.0 °F 22% 30.27 in 10.0 mi Variable 4.6 mph - N/A   Clear
2:53 PM 50.0 °F - 12.9 °F 23% 30.25 in 10.0 mi Calm Calm - N/A   Clear
3:53 PM 51.1 °F - 12.9 °F 22% 30.24 in 10.0 mi Variable 5.8 mph - N/A   Clear
4:53 PM 51.8 °F - 14.0 °F 22% 30.20 in 10.0 mi South 3.5 mph - N/A   Clear
5:53 PM 51.8 °F - 15.8 °F 24% 30.21 in 10.0 mi East 5.8 mph - N/A   Clear
6:53 PM 45.0 °F - 16.0 °F 31% 30.28 in 10.0 mi Calm Calm - N/A   Clear
7:53 PM 37.9 °F 34.4 °F 16.0 °F 41% 30.32 in 10.0 mi North 4.6 mph - N/A   Clear
8:53 PM 37.0 °F 34.5 °F 16.0 °F 42% 30.31 in 10.0 mi NE 3.5 mph - N/A   Clear
9:53 PM 37.9 °F 32.1 °F 16.0 °F 41% 30.30 in 10.0 mi East 8.1 mph - N/A   Clear
10:53 PM 39.0 °F 34.0 °F 17.1 °F 41% 30.28 in 10.0 mi ENE 6.9 mph - N/A   Clear
11:53 PM 35.1 °F 32.2 °F 16.0 °F 46% 30.29 in 10.0 mi West 3.5 mph - N/A   Clear